San Carlos, CA

10:38 PM PDT on May 26, 2017 (GMT -0700)
San Carlos

Weather History for KSQL - May, 2013

Change the Weather History Date:

Monday, May 6, 2013

  Actual Average Record
Temperature  
Mean Temperature 62 °F -  
Max Temperature 68 °F 73 °F 96 °F (1987)
Min Temperature 57 °F 47 °F 38 °F (1968)
Degree Days  
Heating Degree Days 2    
Growing Degree Days 12 (Base 50)    
Moisture  
Dew Point 48 °F    
Average Humidity 62    
Maximum Humidity 72    
Minimum Humidity 49    
Precipitation  
Precipitation 0.00 in - - ()
Sea Level Pressure  
Sea Level Pressure 29.87 in    
Wind  
Wind Speed 6 mph (South)    
Max Wind Speed 13 mph    
Max Gust Speed -    
Visibility 10 miles    
Events      
Averages and records for this station are not official NWS values.
T = Trace of Precipitation, MM = Missing Value Source: NWS Daily Summary

Daily Weather History Graph

Daily Weather History Graph

Search for Another Location

Airport or City:

Trip Planner

Search our weather history database for the weather conditions in past years. The results will help you decide how hot, cold, wet, or windy it might be!

Date:

Astronomy

May. 06, 2013 Rise Set
Actual Time 6:07 AM PDT 8:03 PM PDT
Civil Twilight 5:39 AM PDT 8:32 PM PDT
Nautical Twilight 5:04 AM PDT 9:07 PM PDT
Astronomical Twilight 4:27 AM PDT 9:44 PM PDT
Moon 4:09 AM PDT (5/6) 5:12 PM PDT (5/6)
Length of Visible Light 14h 53m
Length of Day
13h 55m
Waning Crescent, 10% of the Moon is Illuminated
May 6
Waning Crescent
May 9
New
May 17
First Quarter
May 24
Full
May 31
Last Quarter

Hourly Weather History & Observations

Time (PDT) Temp. Dew Point Humidity Pressure Visibility Wind Dir Wind Speed Gust Speed Precip Events Conditions
12:15 AM 60.8 °F 48.2 °F 63% 29.83 in 10.0 mi SSW 8.1 mph - N/A   Overcast
12:35 AM 59.0 °F 48.2 °F 67% 29.83 in 10.0 mi South 9.2 mph - N/A   Overcast
12:55 AM 59.0 °F 48.2 °F 67% 29.83 in 10.0 mi SSE 9.2 mph - N/A   Overcast
1:15 AM 59.0 °F 48.2 °F 67% 29.83 in 10.0 mi South 9.2 mph - N/A   Overcast
1:35 AM 59.0 °F 48.2 °F 67% 29.83 in 10.0 mi South 5.8 mph - N/A   Overcast
1:55 AM 59.0 °F 48.2 °F 67% 29.84 in 10.0 mi SSW 5.8 mph - N/A   Mostly Cloudy
2:15 AM 59.0 °F 48.2 °F 67% 29.84 in 10.0 mi South 5.8 mph - N/A   Scattered Clouds
2:35 AM 59.0 °F 48.2 °F 67% 29.84 in 10.0 mi WSW 3.5 mph - N/A   Mostly Cloudy
2:55 AM 59.0 °F 48.2 °F 67% 29.83 in 10.0 mi Calm Calm - N/A   Overcast
3:15 AM 59.0 °F 48.2 °F 67% 29.84 in 10.0 mi SSW 3.5 mph - N/A   Overcast
3:35 AM 59.0 °F 48.2 °F 67% 29.84 in 10.0 mi South 3.5 mph - N/A   Overcast
3:55 AM 59.0 °F 48.2 °F 67% 29.83 in 10.0 mi SSW 3.5 mph - N/A   Mostly Cloudy
4:15 AM 59.0 °F 48.2 °F 67% 29.83 in 10.0 mi SE 3.5 mph - N/A   Mostly Cloudy
4:35 AM 59.0 °F 48.2 °F 67% 29.84 in 10.0 mi SSE 3.5 mph - N/A   Overcast
4:55 AM 59.0 °F 48.2 °F 67% 29.83 in 10.0 mi SSE 3.5 mph - N/A   Overcast
5:15 AM 57.2 °F 48.2 °F 72% 29.83 in 10.0 mi SSE 3.5 mph - N/A   Partly Cloudy
5:35 AM 57.2 °F 48.2 °F 72% 29.83 in 10.0 mi Calm Calm - N/A   Clear
5:55 AM 57.2 °F 48.2 °F 72% 29.83 in 10.0 mi Calm Calm - N/A   Clear
6:15 AM 57.2 °F 48.2 °F 72% 29.83 in 10.0 mi SSW 3.5 mph - N/A   Clear
6:35 AM 57.2 °F 48.2 °F 72% 29.84 in 10.0 mi Calm Calm - N/A   Clear
6:47 AM 57.2 °F 48.2 °F 72% 29.84 in 10.0 mi SSW 3.5 mph - N/A   Scattered Clouds
6:55 AM 57.2 °F 48.2 °F 72% 29.84 in 10.0 mi Calm Calm - N/A   Clear
7:50 AM 60.8 °F 50.0 °F 68% 29.86 in 10.0 mi East 4.6 mph - N/A   Scattered Clouds
8:49 AM 62.6 °F 50.0 °F 63% 29.87 in 10.0 mi ENE 5.8 mph - N/A   Mostly Cloudy
9:47 AM 62.6 °F 48.2 °F 59% 29.88 in 10.0 mi Calm Calm - N/A   Mostly Cloudy
10:47 AM 66.2 °F 50.0 °F 56% 29.88 in 10.0 mi NNE 5.8 mph - N/A   Mostly Cloudy
11:52 AM 64.4 °F 50.0 °F 59% 29.90 in 10.0 mi SW 8.1 mph - N/A   Mostly Cloudy
12:47 PM 64.4 °F 50.0 °F 59% 29.89 in 10.0 mi West 3.5 mph - N/A   Overcast
1:53 PM 66.2 °F 50.0 °F 56% 29.89 in 10.0 mi West 8.1 mph - N/A   Mostly Cloudy
2:47 PM 68.0 °F 50.0 °F 52% 29.88 in 10.0 mi NNW 8.1 mph - N/A   Mostly Cloudy
3:55 PM 66.2 °F 51.8 °F 60% 29.87 in 10.0 mi NNE 12.7 mph - N/A   Mostly Cloudy
4:47 PM 66.2 °F 48.2 °F 52% 29.87 in 10.0 mi WNW 6.9 mph - N/A   Mostly Cloudy
5:48 PM 66.2 °F 46.4 °F 49% 29.88 in 10.0 mi SSW 6.9 mph - N/A   Mostly Cloudy
6:55 PM 66.2 °F 46.4 °F 49% 29.88 in 10.0 mi SSW 10.4 mph - N/A   Mostly Cloudy
7:48 PM 64.4 °F 46.4 °F 52% 29.89 in 10.0 mi SSW 8.1 mph - N/A   Mostly Cloudy
8:48 PM 64.4 °F 46.4 °F 52% 29.92 in 10.0 mi South 5.8 mph - N/A   Mostly Cloudy
9:15 PM 64.4 °F 46.4 °F 52% 29.93 in 10.0 mi SSW 9.2 mph - N/A   Overcast
9:35 PM 62.6 °F 46.4 °F 55% 29.94 in 10.0 mi SSW 10.4 mph - N/A   Overcast
9:55 PM 62.6 °F 46.4 °F 55% 29.95 in 10.0 mi SSW 5.8 mph - N/A   Overcast
10:15 PM 64.4 °F 46.4 °F 52% 29.96 in 10.0 mi SSW 4.6 mph - N/A   Overcast
10:35 PM 62.6 °F 48.2 °F 59% 29.97 in 10.0 mi Calm Calm - N/A   Overcast
10:55 PM 62.6 °F 48.2 °F 59% 29.97 in 10.0 mi SE 8.1 mph - N/A   Overcast
11:15 PM 62.6 °F 50.0 °F 63% 29.97 in 10.0 mi SE 8.1 mph - N/A   Overcast
11:35 PM 62.6 °F 48.2 °F 59% 29.98 in 10.0 mi SE 9.2 mph - N/A   Overcast
11:55 PM 62.6 °F 48.2 °F 59% 29.98 in 10.0 mi SSE 8.1 mph - N/A   Overcast